Regional Weather Roundup
Issued by NWS Charleston, SC

Current Version | Previous Version | Graphics & Text | Print | Product List | Glossary On
Versions: 1 2 3 4 5 6 7 8 9 10 11 12 13 14 15 16 17 18 19 20 21 22 23 24 25 26 27 28 29 30 31 32 33 34 35 36 37 38 39 40 41 42 43 44 45 46 47 48 49 50
000
ASUS42 KCHS 051227
RWRCHS

REGIONAL WEATHER ROUNDUP
NATIONAL WEATHER SERVICE CHARLESTON SC
800 AM EDT SUN JUL 05 2015

NOTE: "FAIR" INDICATES FEW OR NO CLOUDS BELOW 12,000 FEET WITH NO
SIGNIFICANT WEATHER AND/OR OBSTRUCTIONS TO VISIBILITY.

NOT ALL STATIONS ARE QUALITY CONTROLLED BY THE NATIONAL
WEATHER SERVICE. USE DATA WITH CAUTION...ESPECIALLY
DEWPOINT OBSERVATIONS.

SCZ027-030-031-034>040-042>050-051300-
...SOUTHEAST SOUTH CAROLINA...

CITY           SKY/WX    TMP DP  RH WIND       PRES   REMARKS
N CHARLESTON   PTSUNNY   75  71  87 SW6       30.15R
6HR MIN TEMP:  72; 6HR MAX TEMP:  75;

WATERFRONT PAR   N/A     77  73  87 VRB2      30.12R
MOUNT PLEASANT FAIR      79  72  78 SW5       30.15S
JOHNS ISLAND   FAIR      79  73  83 CALM      30.15S
PINOPOLIS      NOT AVBL
MONCKS CORNER  FAIR      75  70  83 SW5       30.15R
SUMMERVILLE    FAIR      73  72  94 SW3       30.16R
BEAUFORT MCAS  MOSUNNY   75  71  87 SW3       30.15R
6HR MIN TEMP:  73; 6HR MAX TEMP:  75;

BEAUFORT ARPT  FAIR      77  72  83 SW7       30.15R
HILTON HEAD IS SUNNY     73  72  94 SW7       30.16R
WALTERBORO     SUNNY     72  70  94 SW5       30.16R
ALLENDALE      FAIR      73  72  94 CALM      30.14S

...SOUTHERN MIDLANDS AND PEE DEE...

CITY           SKY/WX    TMP DP  RH WIND       PRES   REMARKS
GEORGETOWN     NOT AVBL
KINGSTREE      NOT AVBL
ORANGEBURG     MOSUNNY   72  69  90 SW6       30.14R
6HR MIN TEMP:  69; 6HR MAX TEMP:  72; 6HR PCP: TRACE;

BARNWELL       CLOUDY    73  72  94 SW5       30.15R
AIKEN          NOT AVBL
MANNING        FAIR      73  68  83 SW6       30.14S
COLUMBIA       CLOUDY    74  69  85 SW5       30.13R
6HR MIN TEMP:  73; 6HR MAX TEMP:  75; 6HR PCP: TRACE;

SUMTER         PTSUNNY   74  70  86 S6        30.11S
6HR MIN TEMP:  70; 6HR MAX TEMP:  74;

FLORENCE       SUNNY     75  70  84 SW7       30.13R
6HR MIN TEMP:  71; 6HR MAX TEMP:  76;

MYRTLE BEACH   SUNNY     75  68  78 W6        30.17R
N MYRTLE BEACH CLOUDY    77  69  76 SW6       30.15R
6HR MIN TEMP:  75; 6HR MAX TEMP:  77;


$$

GAZ063-065-086>088-099>101-113>116-118-119-134>141-150-051300-
...SOUTHEAST GEORGIA...

CITY           SKY/WX    TMP DP  RH WIND       PRES   REMARKS
SAVANNAH ARPT  MOSUNNY   74  69  85 W3        30.16R
6HR MIN TEMP:  71; 6HR MAX TEMP:  74;

HUNTER AAF     SUNNY     74  74 100 SW5       30.13R
6HR MIN TEMP:  70; 6HR MAX TEMP:  74;

FORT STEWART   SUNNY     74  70  87 S5        30.14R
6HR MIN TEMP:  71; 6HR MAX TEMP:  74;

STATESBORO     NOT AVBL
SYLVANIA       SUNNY     74  73  96 SW3       30.17R
CLAXTON        FAIR      73  72  94 CALM      30.16R

...CSRA...CENTRAL AND FAR SOUTHEAST GEORGIA...

CITY           SKY/WX    TMP DP  RH WIND       PRES   REMARKS
THOMSON        CLOUDY    75  74  97 CALM      30.19R
AUGUSTA-BUSH   PTSUNNY   73  71  93 S3        30.13R
6HR MIN TEMP:  71; 6HR MAX TEMP:  73; 6HR PCP: TRACE;

AUGUSTA-DANIEL PTSUNNY   73  70  90 CALM      30.14R
SWAINSBORO     FAIR     N/A N/A N/A CALM      30.16S
VIDALIA        MOSUNNY   75  70  83 SW7       30.16R
EASTMAN        FAIR      72  72 100 CALM      30.18S
HAZLEHURST     FAIR      77  75  94 CALM      30.15S
ALMA           SUNNY     73  70  90 SW5       30.16R
6HR MIN TEMP:  69; 6HR MAX TEMP:  73;

WAYCROSS       SUNNY     77  75  92 SW3       30.17R
JESUP          FAIR      75  73  94 CALM      30.17R
BAXLEY         FAIR      75  72  88 S5        30.16R
BRUNSWICK      SUNNY     73  72  94 SW5       30.18R
SAINT SIMONS   SUNNY     76  73  91 SW5       30.16R
6HR MIN TEMP:  73; 6HR MAX TEMP:  76;


$$

SCZ027-028-034-036>038-045-046-048>050-GAZ119-141-051300-
...LAKE AND SUPPLEMENTAL COASTAL OBSERVATIONS...

STATION/POSITION TIME  TEMP    WIND        PRES    WAVE   SWELL
                       AIR SEA DIR/SP/G            HT/PER HT/PER/DIR
                 (UTC) (F)     (DEG/KT/KT) (MB)    (FT/S) (FT/S/D)
UPR LAKE MARION  NOT AVBL
WINYAH BAY       1145   75     250/  4     1020.0R
LAKE MURRAY      1100   75     230/  9/ 10 1019.0R
ACE BASIN NERRS  NOT AVBL
FORT PULASKI     1200   76 84  220/  6/  8 1021.6R
SAPELO ISLAND    1200   77     210/  4     1021.0S

$$

ANZ835-935-AMZ111-154-330-350-352-354-370-450-454-472-051300-
...C-MAN AND BUOY OBSERVATIONS...

STATION/POSITION TIME  TEMP    WIND        PRES    WAVE   SWELL
                       AIR SEA DIR/SP/G            HT/PER HT/PER/DIR
                 (UTC) (F)     (DEG/KT/KT) (MB)    (FT/S) (FT/S/D)
BUOY 41004       1150   81 82  230/ 12/ 14 1020.5R   3/ 9   2/ 9
BUOY 41008       1150   78 79  230/ 10/ 12 1021.3R   2/ 8   2/120/ 8
FOLLY BEACH CMAN 1200   78     240/  6/  8 1021.1R
CAPERS NEARSHORE 1108   80     260/ 12/ 14 1020.7R
FRIPP NEARSHORE  1100   80     260/ 12/ 16 1020.3R


STATION/POSITION TIME  TEMP    WIND        PRES    WAVE   SWELL
                       AIR SEA DIR/SP/G            HT/PER HT/PER/DIR
                 (UTC) (F)     (DEG/KT/KT) (MB)    (FT/S) (FT/S/D)
5E ST. MARYS GA  1121      77                N/A     2/ 8
FRYING PAN BUOY  1150   80 78  220/  8/  8 1021.4R   3/ 5   3/180/ 5
BUOY 41025       1150   80 81  230/ 17/ 21 1019.8R   4/ 6   2/180/ 8
CAPE LOOKOUT NC  1200   81     230/  7/ 12 1020.4R
BUOY 41002       1150   81 80  250/  4/  6 1023.2R   4/ 9   3/140/ 9
BUOY 41010       1120   82 84  170/ 14/ 17 1021.5R
ST AUGUSTINE FL  1200   76 72  210/  2/  3 1022.5R


$$



USA.gov is the U.S. government's official web portal to all federal, state and local government web resources and services.